Time,TemperatureF,DewpointF,PressureIn,WindDirection,WindDirectionDegrees,WindSpeedMPH,WindSpeedGustMPH,Humidity,HourlyPrecipIn,Conditions,Clouds,dailyrainin,SoftwareType,DateUTC
2013-04-28 00:03:00,74.0,-99.9,30.12,ESE,115,3.0,13.0,72,0.00,,,0.00,,2013-04-28 04:03:00,
2013-04-28 00:13:00,74.0,64.0,30.12,ESE,115,3.0,13.0,72,0.00,,,0.00,,2013-04-28 04:13:00,
2013-04-28 00:23:00,74.0,65.0,30.12,ESE,111,4.0,10.0,73,0.00,,,0.00,,2013-04-28 04:23:00,
2013-04-28 00:32:00,74.0,65.0,30.12,East,92,4.0,8.0,73,0.00,,,0.00,,2013-04-28 04:32:00,
2013-04-28 00:43:00,74.0,65.0,30.12,East,92,4.0,8.0,73,0.00,,,0.00,,2013-04-28 04:43:00,
2013-04-28 00:53:00,73.0,65.0,30.11,East,94,4.0,11.0,75,0.00,,,0.00,,2013-04-28 04:53:00,
2013-04-28 01:02:00,73.0,65.0,30.11,ESE,103,5.0,14.0,75,0.00,,,0.00,,2013-04-28 05:02:00,
2013-04-28 01:12:00,73.0,65.0,30.11,ESE,103,5.0,14.0,75,0.00,,,0.00,,2013-04-28 05:12:00,
2013-04-28 01:22:00,73.0,65.0,30.11,East,81,8.0,13.0,76,0.00,,,0.00,,2013-04-28 05:22:00,
2013-04-28 01:32:00,73.0,65.0,30.11,East,89,6.0,13.0,77,0.00,,,0.00,,2013-04-28 05:32:00,
2013-04-28 01:42:00,73.0,65.0,30.11,East,89,6.0,13.0,77,0.00,,,0.00,,2013-04-28 05:42:00,
2013-04-28 01:52:00,72.0,64.0,30.11,East,94,4.0,13.0,77,0.00,,,0.00,,2013-04-28 05:52:00,
2013-04-28 02:01:00,72.0,65.0,30.10,East,88,4.0,8.0,78,0.00,,,0.00,,2013-04-28 06:01:00,
2013-04-28 02:12:00,72.0,65.0,30.10,East,88,4.0,8.0,78,0.00,,,0.00,,2013-04-28 06:12:00,
2013-04-28 02:21:00,72.0,65.0,30.09,SE,139,4.0,13.0,78,0.00,,,0.00,,2013-04-28 06:21:00,
2013-04-28 02:32:00,72.0,65.0,30.09,East,98,4.0,8.0,79,0.00,,,0.00,,2013-04-28 06:32:00,
2013-04-28 02:42:00,72.0,65.0,30.09,East,98,4.0,8.0,79,0.00,,,0.00,,2013-04-28 06:42:00,
2013-04-28 02:52:00,71.0,64.0,30.09,ESE,123,5.0,11.0,79,0.00,,,0.00,,2013-04-28 06:52:00,
2013-04-28 03:02:00,71.0,64.0,30.08,East,98,4.0,9.0,78,0.00,,,0.00,,2013-04-28 07:02:00,
2013-04-28 03:11:00,71.0,64.0,30.08,East,98,4.0,9.0,78,0.00,,,0.00,,2013-04-28 07:11:00,
2013-04-28 03:21:00,71.0,64.0,30.08,East,88,5.0,10.0,79,0.00,,,0.00,,2013-04-28 07:21:00,
2013-04-28 03:32:00,71.0,64.0,30.08,East,101,5.0,11.0,79,0.00,,,0.00,,2013-04-28 07:32:00,
2013-04-28 03:42:00,71.0,64.0,30.08,East,101,5.0,11.0,79,0.00,,,0.00,,2013-04-28 07:42:00,
2013-04-28 03:52:00,71.0,65.0,30.06,ENE,65,3.0,10.0,80,0.00,,,0.00,,2013-04-28 07:52:00,
2013-04-28 04:02:00,71.0,65.0,30.06,SSE,159,6.0,9.0,80,0.00,,,0.00,,2013-04-28 08:02:00,
2013-04-28 04:12:00,71.0,65.0,30.06,SSE,159,6.0,9.0,80,0.00,,,0.00,,2013-04-28 08:12:00,
2013-04-28 04:21:00,71.0,65.0,30.06,ENE,71,4.0,11.0,80,0.00,,,0.00,,2013-04-28 08:21:00,
2013-04-28 04:32:00,71.0,65.0,30.06,ENE,66,4.0,9.0,81,0.00,,,0.00,,2013-04-28 08:32:00,
2013-04-28 04:42:00,71.0,65.0,30.06,ENE,66,4.0,9.0,81,0.00,,,0.00,,2013-04-28 08:42:00,
2013-04-28 04:52:00,71.0,65.0,30.05,ESE,103,3.0,9.0,81,0.00,,,0.00,,2013-04-28 08:52:00,
2013-04-28 05:01:00,70.0,64.0,30.06,SE,134,4.0,10.0,81,0.00,,,0.00,,2013-04-28 09:01:00,
2013-04-28 05:12:00,70.0,64.0,30.06,SE,134,4.0,10.0,81,0.00,,,0.00,,2013-04-28 09:12:00,
2013-04-28 05:22:00,70.0,64.0,30.06,East,92,5.0,12.0,82,0.00,,,0.00,,2013-04-28 09:22:00,
2013-04-28 05:33:00,70.0,64.0,30.05,East,90,3.0,9.0,82,0.00,,,0.00,,2013-04-28 09:33:00,
2013-04-28 05:42:00,70.0,64.0,30.05,East,90,3.0,9.0,82,0.00,,,0.00,,2013-04-28 09:42:00,
2013-04-28 05:53:00,70.0,64.0,30.05,ESE,102,3.0,9.0,82,0.00,,,0.00,,2013-04-28 09:53:00,
2013-04-28 06:03:00,70.0,64.0,30.05,East,82,2.0,9.0,81,0.00,,,0.00,,2013-04-28 10:03:00,
2013-04-28 06:12:00,70.0,64.0,30.05,East,82,2.0,9.0,81,0.00,,,0.00,,2013-04-28 10:12:00,
2013-04-28 06:23:00,70.0,64.0,30.05,ESE,109,2.0,9.0,81,0.00,,,0.00,,2013-04-28 10:23:00,
2013-04-28 06:32:00,70.0,64.0,30.05,SE,142,3.0,8.0,81,0.00,,,0.00,,2013-04-28 10:32:00,
2013-04-28 06:42:00,70.0,64.0,30.05,SE,142,3.0,8.0,81,0.00,,,0.00,,2013-04-28 10:42:00,
2013-04-28 06:52:00,70.0,64.0,30.06,SE,129,2.0,9.0,81,0.00,,,0.00,,2013-04-28 10:52:00,
2013-04-28 07:02:00,70.0,64.0,30.06,East,92,2.0,7.0,82,0.00,,,0.00,,2013-04-28 11:02:00,
2013-04-28 07:11:00,70.0,64.0,30.06,East,92,2.0,7.0,82,0.00,,,0.00,,2013-04-28 11:11:00,
2013-04-28 07:22:00,70.0,64.0,30.07,East,98,2.0,8.0,82,0.00,,,0.00,,2013-04-28 11:22:00,
2013-04-28 07:32:00,69.0,63.0,30.07,ESE,118,1.0,10.0,81,0.00,,,0.00,,2013-04-28 11:32:00,
2013-04-28 07:42:00,69.0,63.0,30.07,ESE,118,1.0,10.0,81,0.00,,,0.00,,2013-04-28 11:42:00,
2013-04-28 07:52:00,70.0,64.0,30.08,East,84,2.0,7.0,81,0.00,,,0.00,,2013-04-28 11:52:00,
2013-04-28 08:02:00,70.0,64.0,30.08,ESE,103,1.0,5.0,82,0.00,,,0.00,,2013-04-28 12:02:00,
2013-04-28 08:12:00,70.0,64.0,30.08,ESE,103,1.0,5.0,82,0.00,,,0.00,,2013-04-28 12:12:00,
2013-04-28 08:22:00,70.0,64.0,30.08,East,96,3.0,5.0,82,0.00,,,0.00,,2013-04-28 12:22:00,
2013-04-28 08:32:00,71.0,65.0,30.09,East,79,3.0,10.0,80,0.00,,,0.00,,2013-04-28 12:32:00,
2013-04-28 08:42:00,71.0,65.0,30.09,East,79,3.0,10.0,80,0.00,,,0.00,,2013-04-28 12:42:00,
2013-04-28 08:52:00,72.0,65.0,30.09,ESE,108,5.0,10.0,78,0.00,,,0.00,,2013-04-28 12:52:00,
2013-04-28 09:02:00,73.0,65.0,30.09,ESE,109,4.0,10.0,75,0.00,,,0.00,,2013-04-28 13:02:00,
2013-04-28 09:11:00,73.0,65.0,30.09,ESE,109,4.0,10.0,75,0.00,,,0.00,,2013-04-28 13:11:00,
2013-04-28 09:21:00,74.0,65.0,30.09,East,91,4.0,11.0,73,0.00,,,0.00,,2013-04-28 13:21:00,
2013-04-28 09:32:00,75.0,65.0,30.09,East,93,6.0,14.0,71,0.00,,,0.00,,2013-04-28 13:32:00,
2013-04-28 09:42:00,75.0,65.0,30.09,East,93,6.0,14.0,71,0.00,,,0.00,,2013-04-28 13:42:00,
2013-04-28 09:52:00,76.0,65.0,30.09,East,98,5.0,10.0,70,0.00,,,0.00,,2013-04-28 13:52:00,
2013-04-28 10:02:00,77.0,65.0,30.10,East,98,4.0,10.0,66,0.00,,,0.00,,2013-04-28 14:02:00,
2013-04-28 10:11:00,77.0,65.0,30.10,East,98,4.0,10.0,66,0.00,,,0.00,,2013-04-28 14:11:00,
2013-04-28 10:22:00,77.0,64.0,30.09,SSE,148,5.0,12.0,64,0.00,,,0.00,,2013-04-28 14:22:00,
2013-04-28 10:32:00,78.0,65.0,30.10,ESE,112,3.0,11.0,64,0.00,,,0.00,,2013-04-28 14:32:00,
2013-04-28 10:42:00,78.0,65.0,30.10,ESE,112,3.0,11.0,64,0.00,,,0.00,,2013-04-28 14:42:00,
2013-04-28 10:52:00,78.0,64.0,30.11,ESE,107,4.0,13.0,63,0.00,,,0.00,,2013-04-28 14:52:00,
2013-04-28 11:02:00,79.0,65.0,30.11,East,99,4.0,9.0,62,0.00,,,0.00,,2013-04-28 15:02:00,
2013-04-28 11:12:00,79.0,65.0,30.11,East,99,4.0,9.0,62,0.00,,,0.00,,2013-04-28 15:12:00,
2013-04-28 11:21:00,79.0,65.0,30.10,NE,38,3.0,10.0,62,0.00,,,0.00,,2013-04-28 15:21:00,
2013-04-28 11:32:00,80.0,65.0,30.09,SSE,153,3.0,12.0,61,0.00,,,0.00,,2013-04-28 15:32:00,
2013-04-28 11:42:00,80.0,65.0,30.09,SSE,153,3.0,12.0,61,0.00,,,0.00,,2013-04-28 15:42:00,
2013-04-28 11:53:00,80.0,64.0,30.09,East,92,5.0,10.0,59,0.00,,,0.00,,2013-04-28 15:53:00,
2013-04-28 12:03:00,80.0,64.0,30.09,East,81,5.0,15.0,59,0.00,,,0.00,,2013-04-28 16:03:00,
2013-04-28 12:13:00,80.0,64.0,30.09,East,81,5.0,15.0,59,0.00,,,0.00,,2013-04-28 16:13:00,
2013-04-28 12:23:00,82.0,66.0,30.08,ESE,114,2.0,13.0,59,0.00,,,0.00,,2013-04-28 16:23:00,
2013-04-28 12:33:00,82.0,65.0,30.08,ESE,104,3.0,9.0,56,0.00,,,0.00,,2013-04-28 16:33:00,
2013-04-28 12:43:00,82.0,65.0,30.08,ESE,104,3.0,9.0,56,0.00,,,0.00,,2013-04-28 16:43:00,
2013-04-28 12:52:00,83.0,65.0,30.08,East,98,7.0,12.0,55,0.00,,,0.00,,2013-04-28 16:52:00,
2013-04-28 13:02:00,83.0,64.0,30.06,ENE,77,6.0,13.0,53,0.00,,,0.00,,2013-04-28 17:02:00,
2013-04-28 13:12:00,83.0,64.0,30.06,ENE,77,6.0,13.0,53,0.00,,,0.00,,2013-04-28 17:12:00,
2013-04-28 13:22:00,84.0,64.0,30.05,SE,126,5.0,15.0,52,0.00,,,0.00,,2013-04-28 17:22:00,
2013-04-28 13:32:00,84.0,64.0,30.05,East,93,4.0,12.0,52,0.00,,,0.00,,2013-04-28 17:32:00,
2013-04-28 13:42:00,84.0,64.0,30.05,East,93,4.0,12.0,52,0.00,,,0.00,,2013-04-28 17:42:00,
2013-04-28 13:52:00,85.0,64.0,30.04,East,81,3.0,10.0,50,0.00,,,0.00,,2013-04-28 17:52:00,
2013-04-28 14:02:00,85.0,64.0,30.04,South,184,4.0,10.0,49,0.00,,,0.00,,2013-04-28 18:02:00,
2013-04-28 14:12:00,85.0,64.0,30.04,South,184,4.0,10.0,49,0.00,,,0.00,,2013-04-28 18:12:00,
2013-04-28 14:22:00,85.0,63.0,30.04,East,82,3.0,12.0,48,0.00,,,0.00,,2013-04-28 18:22:00,
2013-04-28 14:32:00,85.0,62.0,30.03,East,95,7.0,14.0,46,0.00,,,0.00,,2013-04-28 18:32:00,
2013-04-28 14:42:00,85.0,62.0,30.03,East,95,7.0,14.0,46,0.00,,,0.00,,2013-04-28 18:42:00,
2013-04-28 14:52:00,86.0,62.0,30.02,SSE,163,3.0,10.0,45,0.00,,,0.00,,2013-04-28 18:52:00,
2013-04-28 15:02:00,85.0,61.0,30.01,ENE,74,5.0,16.0,45,0.00,,,0.00,,2013-04-28 19:02:00,
2013-04-28 15:11:00,85.0,61.0,30.01,ENE,74,5.0,16.0,45,0.00,,,0.00,,2013-04-28 19:11:00,
2013-04-28 15:22:00,86.0,61.0,30.01,ESE,116,3.0,9.0,43,0.00,,,0.00,,2013-04-28 19:22:00,
2013-04-28 15:32:00,86.0,60.0,30.01,ESE,114,5.0,10.0,42,0.00,,,0.00,,2013-04-28 19:32:00,
2013-04-28 15:42:00,86.0,60.0,30.01,ESE,114,5.0,10.0,42,0.00,,,0.00,,2013-04-28 19:42:00,
2013-04-28 15:52:00,86.0,61.0,30.00,SE,126,3.0,10.0,43,0.00,,,0.00,,2013-04-28 19:52:00,
2013-04-28 16:02:00,87.0,61.0,29.99,SE,130,3.0,11.0,42,0.00,,,0.00,,2013-04-28 20:02:00,
2013-04-28 16:12:00,87.0,61.0,29.99,SE,130,3.0,11.0,42,0.00,,,0.00,,2013-04-28 20:12:00,
2013-04-28 16:22:00,87.0,62.0,29.99,ESE,121,4.0,10.0,43,0.00,,,0.00,,2013-04-28 20:22:00,
2013-04-28 16:32:00,85.0,60.0,29.99,SE,144,2.0,7.0,43,0.00,,,0.00,,2013-04-28 20:32:00,
2013-04-28 16:42:00,85.0,60.0,29.99,SE,144,2.0,7.0,43,0.00,,,0.00,,2013-04-28 20:42:00,
2013-04-28 16:52:00,85.0,60.0,29.98,ENE,61,0.0,5.0,43,0.00,,,0.00,,2013-04-28 20:52:00,
2013-04-28 17:01:00,84.0,66.0,29.98,WSW,258,4.0,7.0,55,0.00,,,0.00,,2013-04-28 21:01:00,
2013-04-28 17:11:00,84.0,66.0,29.98,WSW,258,4.0,7.0,55,0.00,,,0.00,,2013-04-28 21:11:00,
2013-04-28 17:22:00,86.0,66.0,29.97,WNW,286,3.0,7.0,51,0.00,,,0.00,,2013-04-28 21:22:00,
2013-04-28 17:33:00,86.0,67.0,29.98,SW,233,4.0,10.0,54,0.00,,,0.00,,2013-04-28 21:33:00,
2013-04-28 17:42:00,86.0,67.0,29.98,SW,233,4.0,10.0,54,0.00,,,0.00,,2013-04-28 21:42:00,
2013-04-28 17:53:00,83.0,68.0,29.98,NW,324,3.0,12.0,60,0.00,,,0.00,,2013-04-28 21:53:00,
2013-04-28 18:03:00,81.0,66.0,29.98,WNW,291,5.0,11.0,61,0.00,,,0.00,,2013-04-28 22:03:00,
2013-04-28 18:13:00,81.0,66.0,29.98,WNW,291,5.0,11.0,61,0.00,,,0.00,,2013-04-28 22:13:00,
2013-04-28 18:23:00,82.0,68.0,29.97,SW,229,5.0,9.0,63,0.00,,,0.00,,2013-04-28 22:23:00,
2013-04-28 18:33:00,81.0,68.0,29.97,West,266,2.0,8.0,64,0.00,,,0.00,,2013-04-28 22:33:00,
2013-04-28 18:42:00,81.0,68.0,29.97,West,266,2.0,8.0,64,0.00,,,0.00,,2013-04-28 22:42:00,
2013-04-28 18:52:00,80.0,68.0,29.96,WSW,253,2.0,9.0,66,0.00,,,0.00,,2013-04-28 22:52:00,
2013-04-28 19:02:00,79.0,67.0,29.96,SW,234,2.0,9.0,67,0.00,,,0.00,,2013-04-28 23:02:00,
2013-04-28 19:12:00,79.0,67.0,29.96,SW,234,2.0,9.0,67,0.00,,,0.00,,2013-04-28 23:12:00,
2013-04-28 19:22:00,78.0,67.0,29.97,WNW,285,3.0,9.0,70,0.00,,,0.00,,2013-04-28 23:22:00,
2013-04-28 19:32:00,78.0,67.0,29.97,WNW,284,3.0,6.0,70,0.00,,,0.00,,2013-04-28 23:32:00,
2013-04-28 19:42:00,78.0,67.0,29.97,WNW,284,3.0,6.0,70,0.00,,,0.00,,2013-04-28 23:42:00,
2013-04-28 19:52:00,77.0,66.0,29.97,WNW,294,2.0,7.0,70,0.00,,,0.00,,2013-04-28 23:52:00,
2013-04-28 20:01:00,76.0,66.0,29.96,WNW,293,2.0,5.0,72,0.00,,,0.00,,2013-04-29 00:01:00,
2013-04-28 20:11:00,76.0,66.0,29.96,WNW,293,2.0,5.0,72,0.00,,,0.00,,2013-04-29 00:11:00,
2013-04-28 20:22:00,76.0,67.0,29.97,WNW,290,1.0,5.0,73,0.00,,,0.00,,2013-04-29 00:22:00,
2013-04-28 20:32:00,76.0,66.0,29.97,WNW,300,2.0,6.0,72,0.00,,,0.00,,2013-04-29 00:32:00,
2013-04-28 20:42:00,76.0,66.0,29.97,WNW,300,2.0,6.0,72,0.00,,,0.00,,2013-04-29 00:42:00,
2013-04-28 20:52:00,75.0,67.0,29.97,West,271,1.0,6.0,75,0.00,,,0.00,,2013-04-29 00:52:00,
2013-04-28 21:01:00,75.0,67.0,29.97,West,276,1.0,3.0,75,0.00,,,0.00,,2013-04-29 01:01:00,
2013-04-28 21:12:00,75.0,67.0,29.97,West,276,1.0,3.0,75,0.00,,,0.00,,2013-04-29 01:12:00,
2013-04-28 21:22:00,75.0,66.0,29.97,WNW,290,0.0,3.0,74,0.00,,,0.00,,2013-04-29 01:22:00,
2013-04-28 21:32:00,75.0,66.0,29.97,NW,322,0.0,2.0,74,0.00,,,0.00,,2013-04-29 01:32:00,
2013-04-28 21:42:00,75.0,66.0,29.97,NW,322,0.0,2.0,74,0.00,,,0.00,,2013-04-29 01:42:00,
2013-04-28 21:52:00,75.0,67.0,29.98,NW,322,0.0,1.0,75,0.00,,,0.00,,2013-04-29 01:52:00,
2013-04-28 22:02:00,74.0,65.0,29.98,NW,322,0.0,2.0,74,0.00,,,0.00,,2013-04-29 02:02:00,
2013-04-28 22:11:00,74.0,65.0,29.98,NW,322,0.0,2.0,74,0.00,,,0.00,,2013-04-29 02:11:00,
2013-04-28 22:22:00,75.0,67.0,29.99,NW,322,0.0,1.0,75,0.00,,,0.00,,2013-04-29 02:22:00,
2013-04-28 22:32:00,75.0,67.0,29.99,WSW,253,0.0,4.0,76,0.00,,,0.00,,2013-04-29 02:32:00,
2013-04-28 22:42:00,75.0,67.0,29.99,WSW,253,0.0,4.0,76,0.00,,,0.00,,2013-04-29 02:42:00,
2013-04-28 22:52:00,75.0,67.0,30.00,NE,42,0.0,2.0,77,0.00,,,0.00,,2013-04-29 02:52:00,
2013-04-28 23:01:00,75.0,68.0,30.00,NE,38,0.0,2.0,78,0.00,,,0.00,,2013-04-29 03:01:00,
2013-04-28 23:12:00,75.0,68.0,30.00,NE,38,0.0,2.0,78,0.00,,,0.00,,2013-04-29 03:12:00,
2013-04-28 23:22:00,75.0,67.0,30.00,SE,128,0.0,2.0,77,0.00,,,0.00,,2013-04-29 03:22:00,
2013-04-28 23:33:00,74.0,66.0,30.01,East,82,0.0,3.0,77,0.00,,,0.00,,2013-04-29 03:33:00,
2013-04-28 23:42:00,74.0,66.0,30.01,East,82,0.0,3.0,77,0.00,,,0.00,,2013-04-29 03:42:00,
2013-04-28 23:53:00,74.0,67.0,30.01,ENE,77,0.0,0.0,79,0.00,,,0.00,,2013-04-29 03:53:00,